Вернуться в каталог

STARLINK-37444

АктивенСвязьSSO
NORAD 68817·PAYLOAD·🇺🇸 United States

Запущен Apr 23, 2026 с Vandenberg Space Force Base

Loading…

Ближайшие Пролёты (ближайшие 24 часа)

TLE

СвежийSource: CelesTrak SupGP

Эпоха: Sep 14, 2026, 23:02 UTC

1 68817C 26089R   26257.96020833  .00086068  00000+0  26723-2 0  2574
2 68817  97.2852 103.8147 0002162  95.1245 169.8771 15.33388112    11

Отслеживайте STARLINK-37444 в реальном времени с AllMySat

Download on the App Store